Change the Weather History Date:

Saturday, September 29, 2012

  Actual Average Record
Temperature  
Mean Temperature 28 °F -  
Max Temperature 31 °F 22 °F 32 °F (1998)
Min Temperature 24 °F 17 °F 10 °F (2014)
Degree Days  
Heating Degree Days 38    
Moisture  
Dew Point -    
Average Humidity    
Maximum Humidity    
Minimum Humidity    
Precipitation  
Precipitation 0.00 in - - ()
Sea Level Pressure  
Sea Level Pressure 29.26 in    
Wind  
Wind Speed 19 mph ()    
Max Wind Speed 29 mph    
Max Gust Speed 24 mph    
Visibility 0.1 miles    
Events Rain , Snow    
Averages and records for this station are not official NWS values.
T = Trace of Precipitation, MM = Missing Value Source: Averaged Metar Reports

Daily Weather History Graph

Daily Weather History Graph

Search for Another Location

Airport or City:

Trip Planner

Search our weather history database for the weather conditions in past years. The results will help you decide how hot, cold, wet, or windy it might be!

Date:

Astronomy

Sep. 29, 2012 Rise Set
Actual Time 6:52 AM EDT 6:14 PM EDT
Civil Twilight 5:55 AM EDT 7:11 PM EDT
Nautical Twilight 4:46 AM EDT 8:19 PM EDT
Astronomical Twilight 3:26 AM EDT 9:38 PM EDT
Moon 5:22 PM EDT (9/29) 6:31 AM EDT (9/29)
Length of Visible Light 13h 15m
Length of Day
11h 21m
Full, 100% of the Moon is Illuminated
Sep 29
Full
Sep 29
Full
Oct 8
Last Quarter
Oct 15
New
Oct 21
First Quarter

Hourly Weather History & Observations

Time (EDT) Temp. Windchill Dew Point Humidity Pressure Visibility Wind Dir Wind Speed Gust Speed Precip Events Conditions
12:00 AM 24.8 °F 10.3 °F - N/A% 29.62 in 0.1 mi SSE 20.7 mph - N/A Snow Light Snow
12:04 AM 24.8 °F 10.0 °F - N/A% 29.49 in 0.1 mi SSE 21.9 mph - N/A   Light Freezing Drizzle
1:00 AM 26.6 °F 12.0 °F - N/A% 29.57 in 0.1 mi South 23.0 mph - N/A   Light Freezing Drizzle
2:00 AM 28 °F - - % 29.53 in 0 mi South 27.6 mph - -  
2:00 AM 28.4 °F 13.0 °F - N/A% 29.53 in 0.1 mi South 28.8 mph - N/A   Heavy Freezing Drizzle
3:00 AM 28.4 °F 13.0 °F - N/A% 29.49 in 0.1 mi South 28.8 mph - N/A   Heavy Freezing Drizzle
4:00 AM 28.4 °F 13.0 °F - N/A% 29.45 in 0.1 mi South 28.8 mph - N/A   Light Freezing Drizzle
5:00 AM 29 °F - - % 29.42 in 0 mi South 28.8 mph - - Rain Light Freezing Rain
5:00 AM 28.4 °F 13.3 °F - N/A% 29.42 in 0.1 mi South 27.6 mph - N/A   Light Freezing Drizzle
6:00 AM 28.4 °F 13.5 °F - N/A% 29.40 in 0.1 mi South 26.5 mph - N/A   Light Freezing Drizzle
7:00 AM 28.4 °F 13.8 °F - N/A% 29.39 in 0.1 mi SSW 25.3 mph - N/A   Light Freezing Drizzle
7:18 AM 28.4 °F 15.1 °F - N/A% 29.27 in 0.1 mi SSW 20.7 mph - N/A   Clear
7:26 AM 28.4 °F 14.7 °F - N/A% 29.26 in 0.1 mi SSW 21.9 mph - N/A   Light Freezing Drizzle
8:00 AM 29 °F - - % 29.38 in 0 mi South 21.9 mph - -  
8:00 AM 28.4 °F 14.7 °F - N/A% 29.38 in 0.1 mi South 21.9 mph - N/A   Light Freezing Drizzle
8:09 AM 28.4 °F 15.1 °F - N/A% 29.25 in 0.1 mi SSW 20.7 mph - N/A   Light Freezing Drizzle
8:32 AM 28.4 °F 14.4 °F - N/A% 29.24 in 0.1 mi SSW 23.0 mph - N/A   Light Freezing Drizzle
9:00 AM 28.4 °F 15.1 °F - N/A% 29.36 in 0.1 mi SSW 20.7 mph - N/A   Light Freezing Drizzle
9:06 AM 28.4 °F 14.7 °F - N/A% 29.24 in 0.1 mi SSW 21.9 mph - N/A   Light Freezing Drizzle
9:19 AM 28.4 °F 15.4 °F - N/A% 29.24 in 0.1 mi SSW 19.6 mph - N/A   Clear
10:00 AM 30.2 °F 18.1 °F - N/A% 29.36 in 0.1 mi SSW 18.4 mph - N/A   Clear
10:17 AM 30.2 °F 18.5 °F - N/A% 29.23 in 0.1 mi SW 17.3 mph - N/A   Light Freezing Drizzle
10:22 AM 30.2 °F 17.8 °F - N/A% 29.23 in 0.1 mi SW 19.6 mph - N/A   Clear
10:24 AM 30.2 °F 17.8 °F - N/A% 29.23 in 0.1 mi SW 19.6 mph - N/A   Light Freezing Drizzle
10:57 AM 30.2 °F 18.5 °F - N/A% 29.23 in 0.1 mi SW 17.3 mph - N/A   Clear
11:00 AM 30 °F - - % 29.35 in 0 mi SW 17.3 mph - -  
11:00 AM 30.2 °F 18.5 °F - N/A% 29.35 in 0.1 mi SW 17.3 mph - N/A   Clear
11:04 AM 30.2 °F 19.3 °F - N/A% 29.23 in 0.1 mi SW 15.0 mph - N/A   Light Freezing Drizzle
11:19 AM 30.2 °F 19.8 °F - N/A% 29.23 in 0.1 mi SSW 13.8 mph - N/A   Clear
12:00 PM 30.2 °F 19.8 °F - N/A% 29.34 in 0.1 mi South 13.8 mph - N/A   Clear
12:31 PM 30.2 °F 18.5 °F - N/A% 29.21 in 0.1 mi South 17.3 mph - N/A   Light Freezing Drizzle
12:46 PM 30.2 °F 18.5 °F - N/A% 29.20 in 0.1 mi South 17.3 mph - N/A   Light Freezing Drizzle
1:00 PM 30.2 °F 17.4 °F - N/A% 29.32 in 0.1 mi South 20.7 mph - N/A   Light Freezing Drizzle
1:07 PM 30.2 °F 17.4 °F - N/A% 29.20 in 0.1 mi South 20.7 mph - N/A   Light Freezing Drizzle
1:09 PM 30.2 °F 17.4 °F - N/A% 29.20 in 0.1 mi South 20.7 mph - N/A   Clear
1:11 PM 30.2 °F 17.4 °F - N/A% 29.20 in 0.1 mi South 20.7 mph - N/A   Clear
1:25 PM 30.2 °F 17.4 °F - N/A% 29.20 in 0.1 mi South 20.7 mph - N/A   Clear
1:27 PM 30.2 °F 17.1 °F - N/A% 29.20 in 0.1 mi South 21.9 mph - N/A   Light Freezing Drizzle
1:49 PM 30.2 °F 18.1 °F - N/A% 29.20 in 0.1 mi South 18.4 mph - N/A   Light Freezing Drizzle
2:00 PM 31 °F - - % 29.31 in 0 mi South 21.9 mph - -  
2:00 PM 30.2 °F 18.1 °F - N/A% 29.31 in 0.1 mi South 18.4 mph 24.2 mph N/A   Light Freezing Drizzle
2:06 PM 30.2 °F 19.3 °F - N/A% 29.20 in 0.1 mi South 15.0 mph 23.0 mph N/A   Light Freezing Drizzle
3:00 PM 30.2 °F 17.8 °F - N/A% 29.29 in 0.1 mi SSE 19.6 mph - N/A   Light Freezing Drizzle
4:00 PM 30.2 °F 16.2 °F - N/A% 29.25 in 0.1 mi South 25.3 mph - N/A   Light Freezing Drizzle
5:00 PM 30 °F - - % 29.22 in 0 mi SSE 24.2 mph - - Rain Light Freezing Rain
5:00 PM 30.2 °F 16.2 °F - N/A% 29.22 in 0.1 mi South 25.3 mph - N/A   Heavy Freezing Drizzle
5:30 PM 30.2 °F 15.9 °F - N/A% 29.10 in 0.1 mi South 26.5 mph - N/A Rain Light Freezing Rain
6:00 PM 30.2 °F 15.9 °F - N/A% 29.20 in 0.1 mi South 26.5 mph - N/A Rain Light Freezing Rain
6:04 PM 30.2 °F 15.9 °F - N/A% 29.08 in 0.1 mi South 26.5 mph - N/A   Heavy Freezing Drizzle
6:46 PM 30.2 °F 17.1 °F - N/A% 29.09 in 0.1 mi South 21.9 mph - N/A Rain Light Freezing Rain
6:48 PM 30.2 °F 17.1 °F - N/A% 29.09 in 0.1 mi South 21.9 mph - N/A   Heavy Freezing Drizzle
7:00 PM 30.2 °F 17.4 °F - N/A% 29.21 in 0.1 mi SSW 20.7 mph - N/A   Heavy Freezing Drizzle
8:00 PM 29 °F - - % 29.21 in 0 mi SSW 15.0 mph - -  
8:00 PM 28.4 °F 17.0 °F - N/A% 29.21 in 0.1 mi SSW 15.0 mph - N/A   Light Freezing Drizzle
8:48 PM 30.2 °F 21.3 °F - N/A% 29.09 in 0.1 mi SSW 10.4 mph - N/A   Clear
9:00 PM 30.2 °F 21.9 °F - N/A% 29.21 in 0.1 mi SSW 9.2 mph - N/A   Clear
9:07 PM 30.2 °F 21.9 °F - N/A% 29.09 in 0.1 mi South 9.2 mph - N/A   Light Freezing Drizzle
9:44 PM 30.2 °F 21.9 °F - N/A% 29.09 in 0.1 mi SSW 9.2 mph - N/A Rain Light Freezing Rain
10:00 PM 30.2 °F 22.6 °F - N/A% 29.21 in 0.1 mi SSW 8.1 mph - N/A Rain Light Freezing Rain
10:07 PM 30.2 °F 22.6 °F - N/A% 29.09 in 0.1 mi SSW 8.1 mph - N/A   Clear
10:18 PM 30.2 °F 22.6 °F - N/A% 29.09 in 0.1 mi SSW 8.1 mph - N/A   Heavy Freezing Drizzle
10:35 PM 30.2 °F 22.6 °F - N/A% 29.09 in 0.1 mi SSW 8.1 mph - N/A   Light Freezing Drizzle
10:45 PM 30.2 °F 23.4 °F - N/A% 29.10 in 0.1 mi SSW 6.9 mph - N/A   Light Freezing Drizzle
11:00 PM 30 °F - - % 29.21 in 0 mi SSW 5.8 mph - - Rain Heavy Freezing Drizzle
11:00 PM 30.2 °F 24.3 °F - N/A% 29.21 in 0.1 mi SSW 5.8 mph - N/A   Light Freezing Drizzle